Location: ????????
(38.4362°N, 22.8767°E)
Time: 10:18:57
(UTC+00:00)

SL-16 R/B - Pass Details

Date: 23 April 2024
Orbit: 839 x 849 km, 71.0° (Epoch: 18 May)

Event Time Altitude Azimuth Distance (km) Brightness Sun altitude
Exits shadow 00:13:12 39° 79° (E) 1,252 3.3 -33.2°
Drops below altitude 10° 00:17:29 10° 37° (NE) 2,467 5.5 -32.8°
Sets 00:20:02 0° 30° (NNE) 3,407 6.5 -32.5°
